TimeEST,TemperatureF,Dew PointF,Humidity,Sea Level PressureIn,VisibilityMPH,Wind Direction,Wind SpeedMPH,Gust SpeedMPH,PrecipitationIn,Events,Conditions,WindDirDegrees,DateUTC
12:55 AM,28.8,24.4,84,30.39,10.0,SSW,3.5,-,N/A,,Overcast,210,2013-01-04 05:55:00
1:55 AM,28.9,24.6,84,30.38,10.0,Calm,Calm,-,N/A,,Overcast,0,2013-01-04 06:55:00
2:55 AM,29.8,24.1,79,30.37,10.0,Calm,Calm,-,N/A,,Overcast,0,2013-01-04 07:55:00
3:55 AM,28.0,23.2,82,30.38,10.0,SSW,3.5,-,N/A,,Overcast,200,2013-01-04 08:55:00
4:55 AM,25.9,22.5,87,30.37,10.0,Calm,Calm,-,N/A,,Clear,0,2013-01-04 09:55:00
5:55 AM,23.4,20.7,89,30.39,10.0,SSW,4.6,-,N/A,,Clear,210,2013-01-04 10:55:00
6:55 AM,24.1,20.8,87,30.40,10.0,SSW,4.6,-,N/A,,Clear,200,2013-01-04 11:55:00
7:55 AM,23.7,20.7,88,30.40,10.0,SSW,4.6,-,N/A,,Clear,210,2013-01-04 12:55:00
9:55 AM,29.1,25.0,85,30.42,10.0,SW,4.6,-,N/A,,Clear,220,2013-01-04 14:55:00
10:55 AM,34.0,25.9,72,30.44,10.0,West,11.5,-,N/A,,Clear,260,2013-01-04 15:55:00
11:55 AM,37.4,26.4,65,30.43,10.0,West,8.1,-,N/A,,Partly Cloudy,260,2013-01-04 16:55:00
12:55 PM,38.1,25.7,61,30.41,10.0,WSW,16.1,24.2,N/A,,Scattered Clouds,240,2013-01-04 17:55:00
1:55 PM,36.3,24.4,62,30.39,10.0,West,8.1,-,N/A,,Scattered Clouds,260,2013-01-04 18:55:00
2:55 PM,37.2,24.4,60,30.39,10.0,West,13.8,-,N/A,,Overcast,270,2013-01-04 19:55:00
3:55 PM,37.8,24.1,58,30.40,10.0,West,11.5,-,N/A,,Partly Cloudy,270,2013-01-04 20:55:00
4:55 PM,36.9,23.7,59,30.40,10.0,WSW,9.2,-,N/A,,Clear,250,2013-01-04 21:55:00
5:55 PM,32.9,23.2,67,30.39,10.0,SW,4.6,-,N/A,,Clear,230,2013-01-04 22:55:00
6:55 PM,31.5,22.6,70,30.40,10.0,WSW,5.8,-,N/A,,Clear,240,2013-01-04 23:55:00
7:55 PM,28.8,22.5,77,30.41,10.0,WSW,3.5,-,N/A,,Clear,240,2013-01-05 00:55:00
8:55 PM,28.0,22.1,78,30.40,10.0,Calm,Calm,-,N/A,,Clear,0,2013-01-05 01:55:00
9:55 PM,27.7,22.3,80,30.40,10.0,SSW,3.5,-,N/A,,Clear,210,2013-01-05 02:55:00
10:55 PM,26.1,21.4,82,30.39,10.0,Calm,Calm,-,N/A,,Clear,0,2013-01-05 03:55:00
11:55 PM,24.8,21.2,86,30.39,10.0,Calm,Calm,-,N/A,,Clear,0,2013-01-05 04:55:00